Tracking 28518 objects as of 1-Mar-2024
HD Live streaming from Space Station
objects crossing your sky now

COSMOS 2572

Track COSMOS 2572 now!
10-day predictions


NORAD ID: 58435
Int'l Code: 2023-182A
Perigee: 301.8 km
Apogee: 311.0 km
Inclination: 96.7 °
Period: 90.5 minutes
Semi major axis: 6677 km
RCS: Unknown
Launch date: November 25, 2023
Source: Commonwealth of Independent States (former USSR) (CIS)
Launch site: PLESETSK MISSILE AND SPACE COMPLEX (PKMTR)
Your satellite tracking list
Your tracking list is empty




NASA's NSSDC Master Catalog

Two Line Element Set (TLE):
1 58435U 23182A   24060.80996747  .00012058  19436-5  40209-4 0  9996
2 58435  96.6946 166.0267 0006857 200.4150 159.6853 15.91081540 15257
Source of the keplerian elements: AFSPC